Theta_e
342 342 341 341 340 340 340 340 339 335 332 332 331 324 314 307 307 308 313 322 325 321 314 311 313 316 321 324 323 323 324 324 326 327 327 326 326 325 324 323 322 321 322 323 323 322 321 324 326 325 326 329 331 333 336 337 338 337 337 335 333 334
342 342 341 341 340 340 341 340 338 333 332 332 327 316 310 313 317 318 325 333 336 335 329 320 314 315 318 319 320 322 323 322 323 322 322 322 321 321 321 320 320 321 321 322 322 320 321 326 329 328 328 329 332 335 336 337 338 337 336 335 334 334
343 342 342 341 340 340 341 339 336 333 333 330 321 312 312 323 330 332 335 336 338 339 337 333 323 318 318 319 320 321 322 323 323 323 322 322 322 323 323 322 322 322 322 322 321 321 325 330 333 334 332 330 332 335 335 337 337 336 337 335 334 335
344 343 342 342 341 340 340 338 335 334 333 326 316 313 316 326 333 336 337 338 340 340 338 338 335 329 321 318 321 322 323 324 325 325 324 324 324 324 324 323 323 321 322 320 320 325 330 333 333 336 335 332 334 335 337 338 337 337 336 335 335 335
345 344 343 342 342 340 339 337 334 335 331 320 314 316 323 331 335 337 338 339 340 340 338 338 339 337 326 317 318 320 322 323 324 324 323 323 322 325 329 330 329 327 327 325 324 330 334 335 335 335 336 335 335 336 338 339 338 337 336 335 335 335
344 344 344 343 343 340 337 336 336 336 327 319 320 325 332 336 335 336 339 340 340 340 339 339 340 338 332 324 320 319 320 321 322 323 325 325 323 328 337 338 337 335 334 333 332 334 335 336 336 336 336 335 334 336 338 338 338 337 334 334 334 334
344 345 345 345 344 339 337 339 340 338 329 328 331 333 336 337 336 337 339 340 340 340 340 340 339 337 337 335 328 325 325 323 324 328 332 334 331 332 338 339 338 337 336 336 336 336 336 336 336 335 335 334 334 337 338 337 337 334 331 332 332 332
344 345 345 345 343 338 340 342 341 340 336 336 336 334 336 337 338 338 339 339 339 341 340 339 338 338 339 339 336 335 334 332 332 335 337 338 337 336 338 338 338 337 336 336 336 337 337 336 335 335 335 333 335 338 338 337 337 332 329 329 328 329
344 345 345 345 344 341 342 343 341 340 338 339 337 335 337 337 338 338 338 340 340 341 340 340 340 340 340 340 339 338 338 337 337 338 338 338 338 338 338 338 338 337 336 336 336 337 336 334 334 334 334 334 335 338 338 338 335 331 329 327 326 326
343 344 344 345 345 343 343 343 341 340 339 340 338 336 337 337 338 338 337 340 341 341 341 341 340 340 339 339 339 338 338 338 337 337 338 338 338 338 338 338 338 337 336 335 335 336 335 334 334 334 334 334 336 338 338 337 335 331 328 326 325 324
343 344 345 345 345 343 343 342 341 340 339 339 337 335 337 337 338 339 339 340 341 341 340 340 340 339 339 339 339 338 337 338 337 337 337 337 337 337 336 337 337 336 336 335 334 335 335 333 332 333 333 333 334 337 338 336 334 331 328 325 324 322
343 343 344 345 345 343 342 342 340 340 338 336 337 336 337 337 338 340 340 340 341 340 340 340 339 339 339 339 339 338 337 337 337 337 337 337 337 337 336 336 336 336 336 336 334 335 335 333 331 331 331 331 331 333 335 335 334 331 328 325 323 322
343 343 343 344 344 343 342 341 340 340 338 335 337 337 337 338 338 340 340 340 341 340 340 340 340 340 339 338 337 338 337 337 337 337 336 337 337 337 336 336 336 336 335 334 334 334 334 332 331 330 329 329 329 329 331 332 333 331 329 326 323 321
343 343 343 343 343 342 341 341 340 340 338 335 337 338 337 338 339 339 340 341 340 340 340 339 340 339 339 338 337 337 337 337 338 337 336 337 337 336 335 335 335 335 334 334 334 334 333 330 330 330 328 327 327 327 327 328 329 329 326 322 319 318
342 343 342 343 343 341 341 341 340 339 338 336 336 337 337 338 339 339 340 340 340 341 340 338 338 338 338 338 337 337 337 337 338 337 336 337 337 335 335 334 334 334 335 335 334 333 332 329 329 328 326 326 325 324 324 323 323 323 321 318 316 314
342 343 342 343 342 341 341 341 340 339 338 336 336 337 338 338 339 339 340 340 340 341 340 337 337 338 337 337 337 337 337 337 337 337 336 336 336 335 335 335 334 335 336 336 334 331 330 329 328 326 324 324 323 322 321 320 318 317 317 316 314 312
342 342 341 343 342 341 342 341 340 339 338 337 338 339 338 338 339 339 339 340 340 341 339 337 337 337 337 337 337 337 337 337 336 336 336 335 335 335 335 335 335 335 335 335 333 330 329 328 327 325 323 322 321 320 319 318 317 315 314 314 312 310
341 341 341 342 342 341 342 340 340 339 339 338 339 339 339 338 339 339 339 339 340 340 338 338 338 337 337 337 338 337 337 337 336 336 335 334 334 333 334 335 335 334 334 334 332 329 327 326 325 323 322 320 319 318 317 317 316 315 313 312 310 309
341 341 341 342 342 342 341 340 340 340 338 338 339 339 339 339 339 339 339 340 340 339 337 338 338 337 337 338 337 337 336 336 336 335 335 335 334 333 332 333 334 333 332 332 332 329 326 325 324 323 321 318 317 316 315 315 314 313 312 311 310 310
342 341 341 342 342 342 341 340 340 339 338 338 339 339 339 339 339 339 339 339 340 339 338 337 337 337 337 337 337 336 335 335 335 335 335 334 334 333 333 333 333 332 331 331 331 328 326 326 324 321 320 318 316 315 313 312 311 311 311 310 310 310
342 341 341 342 342 342 341 340 340 340 339 339 340 340 339 339 339 339 339 340 339 338 337 337 336 336 336 336 335 335 334 333 333 333 333 333 333 333 332 332 331 331 331 330 328 326 326 326 323 320 319 318 316 314 313 311 310 310 309 309 308 308
341 342 342 342 343 342 341 340 340 340 339 339 340 340 340 340 340 340 339 339 338 337 336 336 336 335 335 334 334 334 333 332 332 331 331 331 330 330 330 330 330 329 330 330 327 325 325 325 324 321 318 317 316 314 312 310 310 309 309 308 308 307
341 343 343 342 342 341 341 340 340 339 339 340 340 340 340 340 340 339 338 338 337 337 336 335 335 334 333 333 333 333 332 331 331 330 329 329 329 329 328 330 329 328 330 330 328 325 326 327 325 321 319 320 319 317 315 311 309 308 308 308 309 309
342 343 343 343 342 341 341 340 340 339 339 340 340 340 340 340 340 339 337 337 336 336 335 334 334 333 333 333 332 331 330 329 329 329 328 329 329 329 328 329 329 328 327 329 328 327 328 329 326 322 323 324 321 321 323 316 308 307 307 306 307 308
342 343 343 342 342 341 341 340 339 339 339 339 339 340 339 339 338 337 336 336 335 334 334 333 333 333 332 332 331 330 329 328 328 327 327 328 328 328 328 328 328 327 325 326 327 326 327 328 327 324 325 327 324 326 327 316 310 309 307 306 305 305
343 343 342 342 342 341 341 340 339 339 338 338 338 338 338 337 337 336 336 335 333 333 333 332 331 331 330 330 330 329 328 328 327 326 326 326 327 326 327 327 327 326 325 324 325 325 324 324 324 323 323 324 325 326 320 312 315 315 309 307 306 305
342 342 342 342 341 341 340 340 340 339 338 337 337 337 337 336 336 335 335 333 332 332 331 331 330 329 329 328 328 327 327 325 325 325 325 326 326 325 325 325 325 324 322 321 320 319 319 320 321 319 317 316 318 321 317 312 317 316 311 310 307 306
343 342 342 341 341 341 340 340 339 338 337 337 336 336 336 335 335 334 333 332 331 330 330 329 329 328 327 327 325 325 324 323 322 324 325 325 325 324 323 322 322 322 320 318 315 312 313 315 316 314 312 312 313 316 315 313 315 315 316 316 311 308
343 342 342 341 341 340 340 339 338 337 337 337 336 336 335 334 334 333 332 331 330 329 329 329 328 327 326 325 324 323 322 321 321 323 324 323 323 322 322 321 321 321 318 315 313 311 312 313 312 312 311 311 311 313 311 311 313 312 315 319 316 311
342 342 342 341 340 339 339 339 338 337 337 336 336 336 335 334 333 332 331 330 329 329 328 327 326 325 324 324 323 321 320 320 320 321 322 322 321 320 320 320 320 320 317 315 313 313 313 313 313 313 312 311 312 312 311 310 311 311 311 314 316 312
342 342 341 340 340 338 338 338 338 337 337 336 336 335 334 333 332 331 330 329 329 328 327 326 325 324 324 323 321 320 319 318 318 319 319 319 318 317 316 316 317 317 316 315 314 313 313 313 312 312 312 312 311 310 310 310 309 310 309 310 314 313
342 342 341 340 339 339 338 338 338 338 337 336 336 335 334 333 332 330 330 329 328 328 326 325 325 324 322 321 319 319 318 317 315 315 314 313 313 312 312 313 314 314 314 313 313 312 312 311 311 311 310 310 310 309 309 309 308 308 308 308 311 310
342 342 341 340 339 339 338 338 338 338 337 336 336 335 334 333 331 331 330 329 328 327 326 325 324 323 322 321 318 317 317 316 314 312 311 310 311 311 311 312 312 312 312 311 311 310 309 309 309 309 309 308 308 308 307 307 307 307 307 306 307 306
342 341 340 339 339 339 339 338 338 338 338 337 335 334 334 332 331 331 330 329 328 326 325 325 324 322 321 320 319 317 316 315 313 311 310 310 311 311 311 311 312 311 311 310 309 309 308 308 308 307 307 307 307 307 306 306 306 305 305 305 305 305
342 341 341 339 338 339 339 339 339 338 338 337 335 334 333 332 331 330 329 328 327 326 325 324 324 323 321 320 318 317 316 315 312 310 310 310 310 310 310 310 310 310 310 309 308 308 308 307 307 306 306 305 305 305 305 305 305 305 304 305 305 304
341 341 341 339 338 339 340 339 339 339 337 336 335 334 333 331 330 330 329 328 327 326 325 324 323 323 321 319 318 317 315 314 311 310 309 309 309 309 308 308 308 308 308 307 307 307 307 306 305 305 304 304 305 305 304 304 304 304 304 304 305 304
342 341 341 340 339 339 340 339 339 338 337 335 334 333 332 331 330 329 328 327 327 326 325 324 323 322 320 319 317 316 314 312 310 309 309 309 308 308 306 306 306 306 306 306 305 305 305 305 305 304 303 303 303 303 303 303 304 304 304 304 304 304
Wind_Speed
22 21 21 19 19 18 16 15 14 12 11 9 7 7 9 10 12 13 14 14 13 11 9 7 7 8 8 8 8 8 8 7 7 7 7 7 6 5 4 3 2 2 2 3 3 3 2 2 3 3 4 5 5 6 7 5 3 3 3 4 6 7
22 21 21 19 19 18 17 15 14 13 11 9 9 10 12 14 14 14 13 12 12 11 10 8 7 8 8 8 8 8 8 8 7 6 5 5 4 3 2 2 2 2 3 4 4 3 2 3 3 3 4 4 4 5 5 1 1 0 1 3 5 6
21 21 21 20 19 19 18 16 15 13 11 10 11 13 15 15 15 14 12 10 9 8 9 8 7 8 7 7 7 7 7 7 6 5 4 4 3 2 1 2 3 4 5 5 5 4 4 5 4 4 5 3 3 4 2 4 3 1 1 3 5 5
22 22 21 20 20 19 18 16 14 12 11 10 13 16 15 14 14 13 10 9 6 6 7 6 6 6 6 6 6 6 6 5 5 4 3 2 1 1 3 4 5 6 6 6 6 5 5 6 6 8 8 4 2 1 5 6 3 1 1 4 6 5
23 22 21 21 20 20 19 17 14 12 11 12 14 17 14 12 12 10 9 9 6 7 7 5 5 4 3 5 6 6 5 5 4 3 3 2 1 2 4 5 7 7 6 6 6 5 7 9 9 10 8 4 1 4 8 6 3 1 2 5 6 6
25 22 21 21 19 19 19 16 14 11 12 14 15 16 13 11 10 7 7 10 9 8 7 7 8 6 3 4 6 6 6 6 5 4 3 3 2 3 4 6 8 8 6 7 7 6 7 8 8 7 6 4 3 9 9 6 3 3 5 7 8 7
25 23 22 20 18 20 19 16 14 12 14 16 15 14 11 9 9 9 10 11 10 9 9 10 12 9 6 6 5 6 6 6 6 5 4 4 4 5 6 8 10 9 9 9 8 6 5 5 6 4 2 2 6 12 9 5 4 7 9 9 9 9
24 23 24 21 19 21 20 17 15 13 14 15 15 13 10 10 11 12 11 9 10 11 11 12 12 10 9 8 8 7 7 7 7 7 7 8 7 6 7 7 7 6 7 7 6 4 2 4 6 2 2 3 9 14 10 6 6 8 9 10 11 10
25 24 25 23 20 20 20 19 17 15 15 14 15 14 11 13 13 12 10 9 9 11 12 11 10 10 9 10 10 10 10 10 9 9 10 10 8 7 5 4 3 3 4 5 3 1 1 3 4 2 3 4 11 16 12 9 8 8 9 10 12 12
25 23 25 24 22 21 21 21 19 16 15 16 17 15 13 14 11 10 11 11 10 11 12 11 10 9 9 9 10 10 11 11 10 10 10 10 8 7 5 4 2 1 2 4 2 0 1 2 4 3 2 4 11 17 14 11 10 9 10 12 12 13
25 24 25 25 23 22 21 21 20 17 15 17 18 16 14 14 11 9 11 11 10 10 10 10 10 9 9 9 8 9 11 10 10 9 9 9 7 6 5 4 3 3 2 1 3 1 4 6 9 9 10 11 12 16 15 12 10 9 11 12 12 13
24 24 24 24 24 22 22 21 21 18 16 16 16 16 16 14 13 12 11 10 10 9 8 9 9 9 9 8 7 9 10 9 9 9 8 8 7 6 6 6 6 5 4 2 5 1 7 10 14 17 17 18 16 15 14 11 9 9 11 12 12 12
25 25 23 23 24 22 22 21 20 18 17 17 15 16 17 13 14 15 12 10 10 8 8 8 8 8 8 8 7 8 9 10 9 9 8 8 6 5 6 8 8 6 5 4 4 2 8 11 13 16 15 15 15 17 16 13 11 9 10 11 11 10
28 27 25 23 23 22 22 20 19 18 18 19 17 17 16 13 14 14 11 10 10 9 8 8 9 10 10 9 9 10 10 10 10 8 7 5 5 5 6 7 8 7 7 5 5 4 10 13 14 13 14 14 14 15 17 17 15 12 11 11 10 9
29 28 27 22 22 23 22 21 19 18 18 18 18 17 15 14 14 12 11 11 10 9 9 8 9 11 10 9 10 10 10 11 9 8 7 5 4 4 4 6 7 9 7 2 5 8 11 14 14 13 12 13 13 14 16 17 17 15 12 10 10 9
31 28 28 22 22 23 22 21 18 17 18 16 17 17 15 15 14 13 13 13 11 10 9 9 10 11 10 11 12 11 10 10 9 8 7 5 4 2 2 4 6 7 4 1 8 13 13 13 14 13 13 12 12 11 12 13 13 12 10 8 8 8
31 28 28 22 23 24 22 21 17 17 18 17 16 16 16 15 15 15 15 13 12 11 11 11 11 11 11 12 13 12 11 10 9 9 8 6 4 2 2 4 5 6 6 2 10 15 15 15 15 14 13 12 11 10 10 10 9 9 7 6 6 6
30 28 27 23 23 24 23 20 18 18 19 18 16 15 15 15 17 18 16 14 13 12 12 13 13 13 13 13 13 13 12 10 10 9 8 6 5 4 4 5 7 8 6 3 10 16 16 17 16 15 13 12 11 10 9 7 6 6 6 6 6 6
29 29 27 24 23 24 23 20 18 18 19 18 16 15 17 17 18 17 15 14 14 14 13 13 14 14 14 15 14 14 12 10 9 8 7 7 7 7 6 7 7 7 5 4 10 17 18 17 16 13 12 11 10 10 9 7 6 6 7 7 7 7
28 28 27 25 24 24 24 20 19 20 20 19 16 17 18 16 16 15 14 15 14 14 13 13 14 14 15 16 15 14 12 9 8 9 8 7 8 9 8 7 7 6 5 6 11 18 18 16 15 12 11 11 10 9 9 8 7 7 7 6 7 7
27 27 28 28 26 27 26 22 22 22 22 21 17 18 18 15 15 15 15 15 15 15 13 13 15 14 14 15 14 12 10 8 8 8 8 8 6 8 8 6 6 7 6 8 14 19 18 16 15 13 10 9 9 9 8 8 7 6 5 4 5 5
28 28 29 29 28 28 28 25 24 23 23 21 18 19 18 17 17 15 15 16 16 16 14 13 15 15 15 14 12 10 9 9 8 7 7 7 6 6 9 8 7 8 8 10 16 19 18 13 11 12 12 9 7 6 6 7 7 6 6 5 5 5
29 29 29 30 29 29 28 27 24 23 23 22 20 20 19 19 18 16 17 17 17 17 15 15 15 14 15 14 12 11 10 9 9 8 7 7 6 6 9 9 8 9 9 12 15 17 14 8 8 14 14 7 3 3 3 3 5 5 5 6 6 6
29 29 30 30 30 28 27 25 23 22 22 22 21 22 21 20 19 18 20 20 18 17 16 15 13 12 13 12 12 10 9 9 10 10 9 8 8 7 8 8 9 10 10 12 14 13 9 6 10 14 8 3 4 4 1 3 5 4 3 5 5 7
29 29 30 31 30 27 26 24 23 22 22 23 23 24 23 22 21 21 22 22 20 18 16 14 12 11 11 10 10 8 7 8 8 9 8 7 8 9 9 8 8 9 10 11 13 12 8 6 11 14 7 3 5 2 2 6 7 4 4 4 3 5
30 29 29 31 31 28 27 27 27 26 27 27 25 26 27 25 23 22 23 22 20 19 18 15 13 12 10 9 9 9 8 6 6 8 8 7 9 10 10 9 9 9 8 10 13 14 11 8 10 12 7 4 4 2 6 10 6 2 3 4 3 4
30 30 29 31 31 30 29 28 28 28 29 29 26 25 26 25 23 21 22 22 20 19 18 15 13 12 10 8 8 10 9 5 6 9 8 9 11 10 10 11 10 9 9 10 12 13 13 11 10 8 5 4 5 5 9 10 6 3 3 3 5 5
30 30 30 31 31 31 31 28 27 27 28 28 27 25 24 23 21 20 21 21 19 19 17 14 12 11 9 7 7 11 9 5 8 11 10 12 12 11 11 12 11 11 11 11 10 11 13 11 10 9 8 7 7 7 9 8 6 6 4 3 4 5
31 31 31 31 30 31 31 28 27 27 26 26 26 24 23 21 21 22 22 22 20 19 16 13 11 10 9 8 9 12 10 8 10 13 13 13 13 12 12 11 11 11 11 12 13 14 14 10 10 11 9 9 9 10 10 9 7 6 4 3 3 4
32 31 31 32 30 30 31 29 27 27 26 26 25 25 24 23 24 25 24 23 21 18 16 15 14 11 10 10 11 13 12 11 12 13 13 13 12 12 13 12 12 12 12 14 15 15 14 12 12 11 10 10 10 10 8 8 8 8 7 5 3 2
32 32 31 32 31 30 29 29 29 28 27 27 27 28 28 27 27 27 25 23 21 19 18 18 16 12 11 12 13 14 13 11 11 12 12 12 12 12 13 13 13 13 13 14 14 14 14 13 13 13 12 12 13 12 11 10 10 10 9 6 4 1
31 32 32 31 31 30 29 30 29 28 28 29 29 30 31 30 29 28 25 23 22 21 19 18 16 14 14 14 14 14 13 12 11 11 11 11 12 13 14 14 15 15 15 14 14 14 14 14 13 14 15 14 15 14 14 12 11 11 11 9 7 4
32 33 34 32 30 30 30 31 30 28 28 30 31 31 32 31 31 29 26 24 24 24 22 20 17 16 15 14 14 14 14 13 13 12 12 12 13 14 15 16 16 16 16 15 15 15 15 15 14 14 15 14 14 14 14 12 11 11 11 10 10 6
33 33 34 33 32 31 31 31 30 29 29 31 32 31 31 32 31 29 27 25 25 24 23 21 19 16 14 13 14 14 14 14 14 14 14 14 14 15 15 16 16 17 17 16 16 16 16 16 15 15 14 14 14 14 13 12 11 12 12 11 13 10
34 33 33 34 34 32 31 31 30 29 29 32 32 31 31 31 30 29 28 26 25 23 20 20 19 16 14 15 15 14 13 14 15 14 14 15 15 15 15 16 16 16 17 16 17 17 17 16 15 15 14 15 15 14 13 13 13 14 14 14 14 13
34 33 34 35 35 33 32 32 31 29 30 32 32 31 30 29 28 28 29 27 24 22 20 18 17 15 15 16 16 15 14 14 15 15 15 15 16 15 15 16 16 16 17 16 16 17 17 16 15 14 14 14 14 14 13 13 15 15 14 14 14 13
33 33 34 35 35 34 32 32 31 30 31 33 32 31 30 29 28 28 29 27 24 21 20 18 17 16 17 18 17 16 14 15 16 16 16 15 15 15 15 16 17 17 17 16 16 17 16 16 15 15 14 13 14 15 13 13 14 14 13 13 13 12
Wind_Direction
164 167 170 170 171 171 170 172 169 167 163 161 159 146 133 126 123 119 116 108 98 96 96 112 132 145 153 152 146 137 135 141 149 156 163 168 173 181 186 199 218 245 273 289 296 302 308 323 347 6 5 1 3 33 53 58 93 92 55 55 61 63
169 171 173 172 173 172 171 173 172 170 165 164 153 138 129 121 120 119 117 108 97 95 90 87 107 127 138 142 138 137 134 135 141 143 150 155 161 176 182 211 254 280 291 297 297 306 313 315 324 337 346 342 349 39 68 116 197 173 59 66 69 72
172 175 175 175 176 176 175 175 175 172 167 163 148 138 131 122 117 114 108 103 97 97 94 78 89 111 122 135 133 136 136 130 136 134 136 139 149 176 228 268 286 294 295 298 305 318 310 307 308 316 326 301 320 34 124 199 210 215 67 79 84 76
177 177 177 178 179 179 178 177 176 172 167 160 148 142 136 127 121 113 105 100 94 105 110 85 87 102 105 133 141 142 142 138 149 150 149 157 181 271 294 298 303 297 300 302 302 314 309 305 301 300 300 267 285 62 172 191 196 212 83 93 86 67
179 178 178 181 183 182 179 176 176 173 166 156 149 148 140 132 129 124 115 109 114 126 128 115 125 133 102 130 146 153 157 159 168 175 191 220 257 299 305 309 311 299 302 306 298 304 303 299 290 284 272 245 236 161 175 187 188 167 96 93 75 56
180 180 178 183 185 182 178 174 173 168 164 155 149 148 141 137 142 154 150 137 142 148 153 156 160 173 165 137 144 159 172 181 188 193 212 236 239 273 292 299 305 299 296 299 296 290 289 283 267 261 243 238 193 165 180 192 157 89 86 88 74 58
181 181 179 185 186 179 175 169 164 163 163 156 151 148 146 149 156 170 173 163 162 168 175 171 170 182 185 172 166 172 182 191 198 200 216 237 229 244 262 274 288 291 284 283 279 265 264 253 246 249 203 217 170 163 176 179 120 87 88 87 79 66
182 180 181 184 182 177 174 168 165 170 171 162 157 154 159 169 168 171 172 172 174 175 184 183 181 190 193 193 193 195 207 206 210 217 224 235 229 228 241 254 273 283 273 266 256 239 241 234 247 277 111 146 160 166 172 159 123 100 94 87 84 74
184 182 182 181 179 179 176 174 176 177 181 182 170 161 170 178 177 184 183 179 185 185 193 198 196 203 200 198 201 209 220 218 221 225 223 231 228 217 210 210 242 278 264 253 241 216 282 202 204 187 127 137 160 167 172 161 136 117 103 91 89 82
186 184 181 179 181 181 178 180 185 182 188 194 178 165 173 180 179 188 188 188 196 196 200 205 207 210 200 197 202 207 212 211 212 211 211 216 212 200 174 159 185 235 263 270 286 83 51 107 139 166 141 131 163 164 163 159 141 124 108 98 94 88
185 182 180 181 183 182 182 183 186 188 188 186 177 172 175 176 175 179 187 193 202 204 206 205 201 198 191 189 194 197 199 200 198 194 198 198 190 185 156 127 144 145 140 273 292 24 82 83 97 119 122 117 145 159 164 161 140 125 109 99 95 90
183 182 182 183 182 182 184 184 186 188 183 175 171 175 173 170 174 178 187 195 198 202 204 201 196 192 191 191 188 189 190 190 191 187 185 184 182 175 150 142 152 163 154 169 269 303 101 105 103 112 115 109 112 127 150 159 139 126 111 98 89 83
182 181 183 180 181 182 183 184 186 185 181 175 166 166 169 168 172 178 188 194 191 192 194 196 197 195 194 191 184 185 185 184 185 181 178 181 180 170 163 163 160 169 158 151 247 230 119 120 114 112 110 109 106 103 118 136 136 127 112 97 87 78
181 181 182 180 183 184 182 184 186 185 184 183 177 167 165 167 171 177 184 186 190 195 194 190 194 197 191 187 183 182 186 186 184 181 179 174 162 160 162 167 173 167 143 147 234 194 125 121 122 122 114 113 111 104 110 120 126 124 111 98 88 81
182 182 181 182 186 184 182 183 184 183 180 182 182 172 167 170 173 179 181 181 192 197 190 185 191 194 189 189 185 177 179 180 179 180 175 152 125 134 150 166 176 161 136 143 205 164 136 126 122 123 120 117 114 111 111 112 117 118 113 108 97 88
182 181 179 183 186 182 181 183 182 179 177 174 173 170 169 172 173 181 183 183 190 188 182 183 188 190 189 191 185 174 171 167 162 162 152 132 119 119 153 157 148 157 169 108 139 144 142 138 130 124 124 123 121 120 117 112 111 112 113 115 106 99
182 179 178 180 181 179 177 181 182 178 175 169 166 169 167 171 177 181 183 182 182 179 177 181 187 190 188 182 174 167 164 158 148 148 139 120 123 139 146 141 139 183 222 129 132 142 139 138 137 132 130 127 128 126 121 118 114 112 110 104 99 101
184 181 179 178 178 178 175 178 181 178 174 167 167 171 168 174 179 178 181 182 180 179 178 181 186 186 181 174 166 161 159 152 142 141 145 137 150 180 185 174 171 198 218 136 142 150 141 138 136 132 132 130 133 130 123 124 120 114 102 93 93 89
183 182 181 180 179 177 175 177 177 174 170 166 167 171 171 174 174 175 183 184 181 182 181 182 184 182 177 170 162 158 150 144 144 150 167 164 162 179 189 185 183 200 195 136 152 158 148 141 134 132 136 132 132 130 124 123 120 123 120 113 106 91
181 183 181 181 181 176 176 176 169 168 168 167 167 167 168 171 172 177 183 182 180 181 181 178 179 179 173 166 160 154 144 146 162 170 178 176 159 162 174 177 175 188 175 142 160 163 156 147 133 124 130 134 133 127 124 124 123 135 142 136 128 111
183 186 184 182 181 177 177 175 168 169 169 169 170 164 163 168 173 175 177 178 178 177 177 172 172 173 166 160 157 152 150 159 172 178 191 199 179 166 178 180 176 190 182 158 160 161 161 157 136 120 122 128 128 127 130 134 131 135 142 141 139 124
185 188 187 185 182 179 179 177 174 175 172 172 175 168 163 165 169 170 171 176 175 172 169 163 165 169 164 157 156 160 170 176 179 184 196 204 197 180 180 174 172 188 188 169 164 163 164 162 146 141 140 127 119 126 135 143 139 131 131 133 129 120
188 189 189 188 185 182 182 180 179 177 172 170 173 170 163 163 166 163 163 169 170 166 165 161 158 160 158 153 156 168 179 185 191 187 178 181 187 189 184 178 180 188 178 161 162 167 170 179 171 153 142 134 149 140 139 170 155 139 148 157 154 143
192 191 191 189 187 185 183 181 180 177 173 169 166 165 162 161 165 159 155 159 159 161 166 168 168 171 171 169 171 174 174 181 190 189 184 184 189 192 188 183 188 195 185 166 162 167 179 198 180 161 145 151 169 148 181 207 166 151 179 182 178 174
194 193 192 191 189 185 181 179 176 173 169 162 156 158 157 156 160 158 155 154 156 162 163 161 173 188 197 200 199 192 179 178 188 194 190 182 181 181 179 178 180 188 197 189 176 169 170 180 179 180 183 159 156 171 206 172 156 158 196 187 163 175
195 195 194 193 190 185 182 179 175 168 161 154 151 155 157 156 158 159 158 158 160 165 160 156 170 184 192 199 203 200 191 189 199 200 193 175 172 173 177 185 186 186 193 195 186 177 170 169 172 183 195 166 154 172 162 157 151 154 204 201 159 153
195 193 193 195 193 188 184 181 178 171 163 160 155 156 161 161 161 163 164 163 163 163 158 158 167 174 179 186 191 186 184 194 191 187 187 179 176 174 174 179 182 182 175 174 183 179 171 173 172 170 176 157 129 138 159 162 165 153 160 204 200 191
194 192 192 194 194 191 187 182 180 174 169 167 162 159 162 162 163 166 165 166 166 163 160 160 164 166 172 177 172 165 166 176 174 176 181 179 180 180 174 170 169 172 167 163 169 164 158 166 171 158 151 147 129 130 145 146 165 172 148 176 206 206
192 192 192 191 192 192 189 184 181 177 171 168 164 163 164 162 165 166 165 166 167 164 163 164 162 160 165 164 157 159 162 167 171 179 185 181 183 185 181 173 166 165 158 151 151 150 143 139 145 148 146 148 137 128 120 103 116 140 111 124 179 202
190 191 192 193 192 191 189 185 183 180 172 166 165 165 165 164 167 168 168 169 167 165 163 162 158 153 158 161 157 160 165 166 170 180 185 185 187 187 186 181 172 168 157 146 144 143 137 125 123 130 137 141 130 118 111 84 72 82 81 91 128 193
189 190 191 194 194 191 189 187 185 182 175 169 167 167 166 166 167 169 172 172 171 168 162 159 159 155 155 159 162 167 169 165 168 176 182 187 187 180 177 175 169 165 157 149 146 143 136 127 121 118 118 120 112 102 97 82 68 74 79 80 96 95
188 189 190 192 193 191 190 190 188 183 178 175 172 171 170 168 169 171 173 173 173 172 165 159 158 156 155 157 159 165 171 166 161 164 168 170 170 165 161 160 160 159 155 149 148 146 137 131 127 120 113 110 108 102 94 90 83 82 80 80 96 96
186 188 190 191 191 189 190 192 189 184 181 178 176 175 174 172 172 174 174 173 173 172 168 163 157 150 154 164 162 161 166 164 157 155 156 154 154 155 154 153 152 150 148 144 143 143 135 130 127 121 117 113 111 106 97 95 93 87 84 79 75 66
186 188 189 190 191 191 192 193 190 188 185 180 178 178 177 175 175 177 178 176 172 170 169 169 166 157 154 165 168 164 163 161 158 155 155 154 152 153 153 150 148 145 142 140 139 137 131 127 124 121 120 116 110 106 100 98 95 86 80 76 66 52
185 186 187 189 191 192 193 193 191 191 187 182 180 180 180 180 180 181 181 179 174 172 169 169 172 168 162 165 168 167 165 161 160 158 156 156 154 153 152 148 146 142 139 139 138 133 129 127 123 120 120 116 110 107 103 99 95 86 78 75 69 61
186 184 185 188 190 192 192 192 192 191 186 182 181 180 181 182 182 182 181 179 175 173 171 167 167 168 170 175 172 166 164 163 163 159 156 156 154 152 151 146 143 139 136 140 138 131 128 124 119 118 118 117 111 105 103 104 98 91 84 78 72 65
186 184 186 188 190 191 192 192 191 189 184 181 181 181 182 181 181 181 181 179 175 172 170 169 168 168 169 172 170 164 161 161 163 161 157 157 154 151 149 143 140 137 136 139 137 131 128 122 118 119 117 114 110 102 101 106 102 95 89 83 76 69